Location: Nassau
(25.0830°N, 77.3500°W)
Time: 12:06:21
(UTC-04:00)

ISS - All Passes

Search period start: 29 March 2015 00:00
Search period end: 08 April 2015 00:00
Orbit: 396 x 406 km, 51.6° (Epoch: 29 March)

Date Brightness Start Highest point End Pass type
(mag) Time Alt. Az. Time Alt. Az. Time Alt. Az.
29 Mar - 06:31:04 10° N 06:33:22 18° NE 06:35:44 10° E visible
29 Mar - 08:07:13 10° WNW 08:09:43 20° SW 08:12:10 10° S daylight
29 Mar - 21:27:11 10° S 21:30:00 28° SE 21:32:53 10° ENE night (unlit)
29 Mar - 23:04:29 10° WNW 23:06:28 15° NW 23:08:21 10° N night (unlit)
30 Mar - 07:13:16 10° NW 07:16:25 54° SW 07:19:33 10° SSE daylight
30 Mar - 20:35:32 10° SSE 20:36:42 12° SE 20:38:02 10° ESE visible
30 Mar - 22:09:57 10° WSW 22:12:54 31° NW 22:15:51 10° NNE night (unlit)
31 Mar - 06:19:54 10° NNW 06:23:03 52° NE 06:26:11 10° SE visible
31 Mar - 21:16:12 10° SW 21:19:26 83° NW 21:22:42 10° NE visible
01 Apr - 05:26:58 10° N 05:29:31 22° NE 05:32:07 10° E visible
01 Apr - 07:03:36 10° W 07:05:49 17° SW 07:07:56 10° SSW daylight
01 Apr - 20:23:03 10° SSW 20:26:03 35° SE 20:29:04 10° ENE visible
01 Apr - 22:00:59 10° WNW 22:02:34 13° NW 22:04:02 10° NNW visible
02 Apr - 04:35:08 10° NNE 04:35:51 11° NE 04:36:41 10° NE visible
02 Apr - 06:09:22 10° NW 06:12:27 42° SW 06:15:29 10° SSE visible
02 Apr - 19:30:53 10° SSE 19:32:40 14° SE 19:34:34 10° E daylight
02 Apr - 21:06:05 10° WSW 21:08:54 26° NW 21:11:41 10° NNE visible
03 Apr - 05:15:48 10° NW 05:19:00 66° NE 05:22:11 10° SE visible
03 Apr - 20:12:06 10° SW 20:15:20 66° NW 20:18:35 10° NE visible
04 Apr - 04:22:41 10° NNW 04:25:25 26° NE 04:28:12 10° ESE night (unlit)
04 Apr - 05:59:50 10° W 06:01:39 14° SW 06:03:22 10° SSW visible
04 Apr - 19:18:45 10° SSW 19:21:51 43° SE 19:24:58 10° NE daylight
04 Apr - 20:57:27 10° NW 20:58:26 11° NW 20:59:17 10° NNW visible
05 Apr - 03:30:18 10° NNE 03:31:42 12° NE 03:33:13 10° ENE night (unlit)
05 Apr - 05:05:14 10° WNW 05:08:12 34° SW 05:11:09 10° SSE night (unlit)
05 Apr - 18:26:11 10° S 18:28:22 17° SE 18:30:39 10° E daylight
05 Apr - 20:02:00 10° W 20:04:39 22° NW 20:07:16 10° N visible
06 Apr - 04:11:28 10° NW 04:14:42 82° NE 04:17:54 10° SE night (unlit)
06 Apr - 19:07:48 10° SW 19:10:59 53° NW 19:14:11 10° NNE daylight
07 Apr - 03:18:10 10° NNW 03:21:04 30° NE 03:23:59 10° ESE night (unlit)
07 Apr - 04:56:00 10° WSW 04:57:15 12° SW 04:58:22 10° SW night (unlit)
07 Apr - 18:14:13 10° SSW 18:17:24 53° SE 18:20:35 10° NE daylight
